Wind_Speed
26 26 26 26 26 26 26 26 26 26 27 28 28 28 27 27 27 27 27 27 28 29 29 30 30 30 31 31 31 31 32 32 32 32 32 32 32 31 30 29 27 26 25 25 24 25 25 25 25 25 25 26 26 25 24 23 24 26 28 29 30 30 31 30 27 24 22 22 22
26 26 26 26 26 26 26 27 27 27 27 27 27 27 26 26 26 27 27 28 28 29 29 30 30 30 31 31 31 31 32 33 33 33 33 32 32 31 30 28 26 25 24 24 24 24 24 25 25 25 26 26 26 25 24 23 25 27 29 30 30 30 29 28 25 23 23 24 24
25 26 26 26 26 26 27 27 28 28 27 27 26 26 26 26 26 26 27 28 28 28 29 29 30 30 30 31 31 32 32 33 33 33 33 33 32 31 29 27 26 24 23 23 23 23 24 24 25 25 25 25 25 24 24 24 26 27 29 30 30 29 27 25 23 23 25 26 27
25 26 26 26 26 26 27 27 27 27 27 27 26 26 25 25 26 26 27 28 28 28 29 29 29 30 30 31 32 32 33 33 33 33 33 33 32 30 28 26 25 24 23 23 23 23 23 24 24 25 25 24 24 24 25 26 27 28 29 29 28 26 24 23 23 25 27 29 28
26 26 26 26 26 26 26 27 27 27 27 26 26 26 26 25 26 27 27 28 29 28 28 29 29 29 30 31 32 33 34 34 34 33 33 32 31 29 27 26 25 25 24 23 23 23 23 24 24 25 24 24 24 24 25 26 27 28 28 27 25 23 22 22 24 26 28 29 28
26 26 26 26 26 26 26 27 27 27 26 26 26 26 26 26 26 27 28 28 29 29 29 28 29 29 30 31 32 33 34 34 34 33 33 31 30 28 27 26 26 25 25 24 24 24 24 25 25 25 24 24 24 24 25 26 27 27 26 25 23 21 21 22 25 27 28 28 26
26 26 26 26 26 27 27 27 27 26 26 26 26 26 26 26 27 27 28 28 29 29 29 29 29 29 30 32 33 34 34 34 34 33 32 30 29 28 27 27 26 26 25 25 25 25 26 26 26 25 25 24 24 25 25 25 26 25 24 23 21 20 21 23 25 27 27 26 25
26 26 26 26 27 27 27 27 27 26 26 26 25 26 26 27 27 28 28 29 29 29 29 29 29 30 31 32 32 33 34 34 34 33 31 30 29 28 27 27 27 26 26 25 26 27 27 27 27 26 26 25 25 25 25 24 25 24 23 22 20 20 20 22 24 26 26 24 23
26 26 27 27 27 27 27 27 27 26 26 26 26 26 26 27 28 28 29 29 29 29 29 29 29 30 31 31 32 33 34 34 34 33 31 30 29 28 28 27 27 26 26 25 26 27 28 28 27 27 26 25 25 24 24 24 25 24 23 21 20 19 20 22 24 25 24 23 22
27 27 27 27 27 28 28 27 27 26 26 26 26 27 27 28 28 29 29 30 30 29 29 29 30 30 31 31 32 32 33 33 33 32 31 30 29 29 28 28 27 26 26 26 26 27 28 28 28 27 26 25 24 24 24 25 26 25 23 20 19 19 21 22 24 24 23 22 21
27 27 27 28 28 28 28 28 28 27 27 27 27 28 28 29 29 30 30 30 30 30 30 30 30 30 31 31 31 32 32 32 32 31 31 30 30 29 28 28 27 26 26 26 26 27 28 29 29 27 26 24 24 24 25 27 28 26 23 19 18 19 21 22 23 23 22 21 20
27 27 28 28 28 29 29 29 29 28 28 28 28 29 29 30 31 31 32 31 31 31 30 30 30 30 30 31 31 31 31 31 31 31 31 31 30 30 29 28 27 26 26 26 26 27 28 29 29 27 26 24 23 24 26 29 29 26 22 18 17 18 20 22 23 22 21 19 19
27 28 28 28 29 29 29 30 30 29 29 29 29 30 30 31 32 32 33 32 32 31 31 30 30 30 31 31 31 31 31 31 30 30 30 30 30 30 29 28 27 27 27 27 27 28 29 30 29 28 26 25 24 25 28 31 30 26 21 17 17 18 19 21 21 20 19 18 19
28 28 29 29 29 30 30 30 30 30 30 30 30 30 31 31 32 33 33 33 32 32 31 31 31 31 31 31 31 30 30 30 30 30 30 30 30 30 30 29 28 28 28 28 28 29 30 30 29 28 26 25 24 26 29 31 29 23 18 16 16 17 19 19 19 18 17 17 18
29 29 29 30 30 31 31 31 31 31 31 30 30 30 30 31 32 33 33 33 33 32 31 31 31 31 31 31 30 30 29 29 29 29 30 30 30 30 30 30 29 29 29 30 30 30 29 29 28 26 25 25 25 27 30 31 27 20 15 14 15 17 18 18 17 16 16 16 17
29 30 30 31 31 31 32 32 32 31 31 30 30 30 30 30 31 32 33 33 33 32 31 31 31 31 31 31 30 29 28 28 29 29 30 31 31 31 30 30 30 30 31 31 31 30 28 27 26 25 25 25 26 29 32 32 25 17 13 13 14 16 16 16 14 14 15 16 17
30 31 31 32 32 33 33 32 32 32 31 30 30 29 29 29 30 32 33 33 33 32 31 31 31 31 31 31 30 29 28 28 28 29 30 31 31 31 31 31 31 31 32 32 31 29 27 25 24 25 26 28 30 34 35 32 23 15 12 12 13 14 14 13 13 14 16 16 17
31 32 32 33 33 33 33 33 32 32 31 31 30 29 29 29 30 31 32 32 32 32 31 31 30 31 31 31 30 29 28 28 28 29 30 31 31 31 31 31 31 31 32 32 30 28 25 24 24 27 31 34 37 39 38 31 19 12 10 11 13 13 12 11 12 15 16 16 16
31 32 33 33 33 33 33 33 33 32 32 31 31 30 30 30 30 31 32 32 31 31 31 31 31 31 31 31 31 29 28 28 28 29 30 31 31 31 31 31 32 32 32 31 28 26 24 25 29 34 39 42 43 42 36 25 14 8 8 10 11 12 11 11 13 15 16 17 16
31 32 32 33 33 33 33 33 33 33 32 32 31 31 31 31 32 32 33 32 31 30 30 30 31 31 31 31 31 30 29 28 28 29 30 30 31 31 31 32 32 33 32 30 27 25 26 29 36 41 45 44 42 37 27 15 7 5 6 9 10 10 10 12 14 16 17 17 17
31 32 32 32 32 33 33 33 32 32 32 32 32 32 32 32 33 33 33 31 30 29 29 30 31 31 31 31 31 30 30 28 28 28 29 30 30 31 31 32 33 32 31 29 27 27 31 36 42 45 44 39 31 22 12 4 3 4 6 8 8 9 10 12 14 17 18 20 19
32 32 32 32 32 32 32 32 31 32 32 32 32 33 33 33 34 33 32 31 29 29 29 30 30 30 30 30 31 30 30 29 28 28 28 29 29 30 30 31 32 32 31 29 29 31 36 41 46 45 38 26 16 8 5 6 5 6 7 7 8 9 11 13 15 17 19 21 21
33 33 33 33 32 32 31 31 31 32 32 33 33 33 33 34 34 34 33 31 30 29 29 29 29 29 30 30 30 30 30 29 28 27 27 28 28 29 30 31 31 32 31 30 31 35 40 43 46 39 26 14 10 9 9 8 8 7 7 8 9 11 12 14 15 17 19 20 21
35 34 34 33 32 32 32 32 32 32 33 33 33 33 34 34 35 34 34 33 31 30 29 29 29 29 29 29 29 30 30 30 29 28 28 27 28 29 30 30 31 32 32 31 34 38 41 44 43 30 15 11 11 11 11 9 8 7 8 9 11 12 13 14 15 17 18 20 21
36 35 34 33 32 32 32 33 33 33 33 33 33 34 34 34 34 34 34 34 32 31 29 28 28 29 29 30 30 30 29 30 30 30 29 28 28 28 30 31 32 32 33 33 37 40 43 46 39 21 9 11 11 10 9 7 6 7 8 10 12 13 14 14 15 17 19 21 22
36 35 34 33 33 33 33 33 33 33 33 33 33 34 34 34 34 34 34 33 32 31 30 30 30 30 30 30 30 30 30 30 30 30 29 29 28 29 30 31 32 32 33 34 38 42 46 48 31 13 9 10 10 8 7 6 6 7 9 11 13 14 14 14 16 18 20 22 23
36 35 34 33 33 33 33 32 32 32 33 33 33 33 33 33 33 33 33 33 32 32 32 32 32 32 31 31 31 30 30 30 30 29 29 28 29 30 31 32 32 32 33 34 38 43 48 48 22 10 11 10 9 8 7 7 7 8 11 13 14 14 14 15 16 18 20 23 25
36 35 34 33 33 33 32 32 32 32 32 32 32 32 32 32 33 33 33 32 32 32 33 33 33 33 33 32 31 31 30 30 30 29 29 28 29 30 31 32 32 32 33 35 38 44 49 44 16 11 12 11 10 9 8 8 9 12 14 15 15 14 14 15 16 19 21 24 26
34 33 32 32 32 32 31 31 31 31 31 31 31 31 31 31 32 32 32 32 32 33 33 33 34 34 33 33 32 31 30 30 30 29 29 29 29 30 31 32 32 32 32 35 38 46 49 37 14 12 12 12 12 11 10 11 14 16 17 16 16 15 15 16 18 21 23 25 27
32 31 31 31 31 30 30 30 30 30 30 30 30 30 31 31 31 32 32 33 33 32 32 33 33 34 33 33 32 31 31 30 30 29 29 29 30 31 32 32 32 31 32 35 38 46 48 34 15 12 13 14 14 13 13 14 17 18 17 17 16 16 17 19 21 23 25 27 28
30 30 30 30 30 29 29 29 29 29 29 29 30 30 30 31 32 32 33 33 32 32 32 32 33 33 33 32 31 31 31 31 30 29 29 29 30 31 32 32 31 31 32 35 39 45 46 34 19 14 13 15 15 15 14 15 17 17 17 17 18 19 20 21 23 24 26 27 29
28 28 29 29 29 29 29 28 28 29 29 29 30 30 31 32 32 33 33 33 32 31 31 32 33 33 33 32 32 31 31 31 30 29 28 29 30 31 31 31 31 31 32 34 39 45 45 36 25 19 16 16 16 16 15 16 17 17 18 19 20 22 24 25 25 26 26 27 29
28 28 28 28 28 28 28 28 28 29 29 30 30 30 31 32 33 33 33 33 32 31 31 32 32 32 32 32 32 32 31 30 29 28 28 29 29 30 30 31 30 30 32 34 38 44 44 36 28 23 20 18 17 16 16 17 18 19 20 21 22 25 27 29 29 28 27 27 28
28 28 28 28 28 28 28 28 29 29 30 30 30 31 32 33 33 33 33 33 33 32 32 31 31 31 31 31 32 31 31 30 29 28 29 29 29 29 30 29 29 29 31 34 39 43 43 36 28 24 22 19 17 16 16 17 19 21 23 24 25 26 29 31 32 32 30 29 28
28 28 28 28 29 29 29 29 29 30 30 31 31 32 33 34 33 33 33 33 33 32 32 31 31 31 31 31 31 31 30 29 29 29 29 29 29 29 29 28 28 28 30 34 39 43 43 38 29 25 22 19 17 17 18 19 20 22 24 25 27 30 32 33 34 33 32 31 30
28 28 28 29 29 29 29 29 30 30 31 32 32 32 33 33 33 32 32 33 32 32 31 31 31 31 31 31 31 30 29 28 28 29 29 29 28 28 28 27 27 28 30 33 37 41 43 40 33 28 24 22 21 20 21 22 23 24 24 25 27 29 31 31 31 31 31 32 31
28 28 28 29 29 29 29 30 30 31 31 32 32 32 33 33 32 31 31 31 31 31 31 31 31 31 31 30 30 29 28 27 27 28 29 28 27 27 26 27 27 27 29 31 34 38 41 41 36 32 29 28 27 27 26 25 24 24 24 24 25 26 26 26 26 27 28 29 30
28 28 28 28 29 29 29 30 30 31 31 32 32 32 32 31 31 31 30 30 30 31 31 31 31 31 30 29 29 28 27 26 26 27 28 28 27 26 26 26 26 27 28 30 32 35 38 39 37 35 32 31 30 30 29 27 25 24 24 24 24 25 25 25 24 24 25 26 28
27 28 28 28 28 29 30 30 30 30 31 31 31 31 31 30 30 29 29 29 30 30 31 31 32 31 30 29 28 27 26 24 25 26 27 27 26 25 25 25 25 26 27 29 31 33 35 37 37 35 33 32 30 29 28 27 26 25 24 24 24 24 25 24 24 24 24 24 26
27 27 27 28 28 29 30 30 30 30 30 30 31 30 29 29 29 29 29 29 29 30 31 31 32 32 32 30 28 26 24 23 24 25 26 26 25 24 24 23 23 25 27 29 31 32 34 35 35 34 33 32 30 28 26 26 25 25 24 24 24 24 24 23 23 23 23 24 25
28 28 27 27 28 29 29 30 30 30 30 30 29 29 28 28 28 28 28 29 29 30 31 31 32 33 33 32 28 25 23 22 23 24 25 25 24 23 22 21 22 24 27 29 30 32 32 32 33 32 31 31 30 28 26 25 23 23 22 22 22 22 23 22 22 22 23 24 24
Wind_Direction
340 340 341 341 341 339 338 338 338 337 335 335 335 336 338 339 339 339 338 336 334 332 332 332 332 332 332 333 332 332 332 334 335 335 334 332 331 331 332 332 331 329 326 323 321 320 320 320 321 321 322 323 323 324 325 328 331 331 329 326 323 319 316 314 315 318 323 327 328
341 342 342 343 342 341 340 339 339 338 337 337 337 338 339 341 340 339 337 336 334 333 332 332 333 333 333 333 333 333 334 336 337 336 334 333 333 334 335 335 334 332 329 327 325 325 325 325 325 325 325 325 325 326 328 331 332 330 325 321 317 314 313 313 317 322 328 330 329
343 343 344 344 343 342 341 340 340 339 339 339 339 341 342 343 341 338 337 335 335 334 333 333 334 334 334 334 334 336 337 337 337 336 335 334 335 337 338 338 337 336 333 332 331 330 330 330 328 327 326 326 328 330 332 333 332 326 320 317 314 313 314 317 322 329 332 331 328
345 345 345 344 344 343 342 341 341 341 340 340 341 343 345 344 342 339 337 337 336 336 335 335 335 335 334 334 336 338 339 339 337 336 335 335 337 338 340 341 342 340 339 338 336 335 334 332 330 328 327 329 331 333 333 332 328 323 319 317 316 317 320 324 329 333 333 329 325
346 346 346 345 345 344 344 343 342 342 342 342 344 346 346 345 344 341 339 337 337 337 338 337 336 335 335 336 338 340 340 339 338 336 336 336 338 340 342 345 345 345 344 343 341 339 336 334 331 329 329 331 333 333 332 329 326 323 321 320 321 322 326 332 335 334 330 325 322
346 347 347 346 346 345 345 345 344 343 343 344 346 347 347 347 345 342 340 338 338 339 340 338 337 336 337 339 340 340 340 339 338 337 337 337 338 341 344 346 347 347 346 345 343 340 337 334 332 331 331 333 333 333 331 329 327 326 326 325 325 327 332 337 336 332 327 323 322
347 347 347 347 347 346 346 345 345 345 345 346 347 348 348 348 346 344 341 341 341 341 340 339 338 339 340 341 340 339 339 338 338 338 338 338 339 341 343 344 345 345 345 344 342 340 337 335 333 332 333 333 332 331 330 330 330 331 330 328 327 330 334 337 334 329 325 323 323
348 348 347 348 347 347 346 346 345 345 346 348 349 350 350 349 347 346 344 344 342 341 340 339 340 341 341 340 339 338 338 338 338 339 339 339 340 341 342 342 341 342 342 342 340 338 336 335 334 333 333 332 330 329 331 334 335 334 332 329 329 332 336 337 333 328 325 324 325
349 349 349 348 348 348 347 346 346 346 347 349 351 351 351 350 349 348 346 345 343 341 340 340 341 341 341 340 339 338 338 338 339 339 340 341 341 340 340 339 338 338 339 339 338 336 335 335 334 333 331 329 327 328 333 337 338 336 333 329 329 333 337 337 333 328 325 325 325
350 349 349 349 348 348 347 347 347 348 349 351 352 353 353 352 351 350 348 345 343 342 342 342 342 341 340 339 338 338 338 339 340 341 341 342 341 340 338 337 336 336 336 336 336 335 335 334 334 332 329 327 326 328 333 338 339 336 332 328 328 333 337 337 332 328 326 325 325
350 349 349 349 348 348 348 347 347 348 350 352 353 354 353 353 352 351 349 347 344 342 342 343 342 341 339 338 338 338 340 341 341 342 342 342 341 339 338 337 337 336 335 335 335 335 334 334 333 330 327 324 324 326 331 336 338 336 331 327 328 332 336 335 331 327 324 324 324
349 349 348 348 348 348 347 347 348 349 351 352 353 353 353 353 352 351 348 346 344 343 343 343 342 340 338 337 338 339 341 342 343 343 342 342 341 340 340 339 339 338 337 336 336 336 335 334 333 329 325 322 323 326 331 336 339 337 332 327 328 333 335 333 328 324 323 323 324
348 347 347 347 346 347 347 347 348 349 350 351 352 352 352 352 351 349 347 345 343 343 343 343 342 340 338 337 338 340 341 343 344 343 342 341 341 340 341 341 342 341 341 340 340 339 338 336 333 329 324 321 322 327 333 338 341 339 334 328 329 334 335 331 325 322 322 324 326
346 345 345 345 345 345 345 346 347 348 349 350 350 350 350 349 348 346 345 343 342 342 342 342 341 340 338 338 338 339 341 343 344 344 342 341 341 341 341 342 343 344 344 343 342 341 339 336 333 329 325 321 322 328 335 340 343 341 335 329 331 334 334 329 323 321 324 328 329
344 343 343 342 343 343 344 345 345 346 347 348 348 348 348 346 344 343 342 341 341 341 341 341 340 339 339 339 339 339 341 343 344 344 343 342 342 342 342 343 344 345 345 345 344 342 340 337 334 330 325 322 322 327 334 339 342 342 337 331 332 334 332 326 322 325 331 334 333
342 341 340 340 341 341 342 343 344 345 345 346 346 346 345 343 341 339 339 339 339 340 340 340 339 339 340 340 340 340 341 343 344 344 343 343 343 343 343 343 344 345 345 345 344 342 340 338 335 331 325 321 320 323 328 334 338 341 340 335 334 333 330 325 327 335 341 339 336
340 339 339 339 339 340 341 342 343 343 344 344 344 344 343 340 338 336 336 336 337 338 338 338 339 339 339 340 341 341 341 342 343 343 343 343 343 343 343 343 344 344 345 345 344 343 342 340 336 330 325 320 317 319 323 328 334 341 343 337 334 332 329 328 339 348 350 343 337
339 338 338 338 339 339 340 341 342 343 343 343 343 343 342 339 336 334 334 335 336 336 336 337 339 340 340 340 341 342 342 342 342 343 343 342 342 342 342 342 343 344 345 345 345 346 346 343 336 330 325 322 320 321 322 326 333 342 344 337 332 330 331 339 354 359 354 345 338
338 338 338 338 339 340 341 342 343 343 343 343 343 342 341 338 335 333 333 334 334 334 335 337 339 340 341 341 342 343 343 342 342 342 342 341 341 341 341 342 343 343 344 345 347 349 348 342 335 332 330 329 327 325 325 327 335 345 343 336 332 333 340 354 4 3 357 350 343
339 339 340 340 341 342 343 343 343 343 343 343 344 343 340 337 335 333 332 332 333 334 335 336 338 339 340 341 342 343 343 343 342 341 340 340 340 340 341 342 342 343 344 346 350 352 348 340 337 337 336 335 332 330 329 332 344 354 345 339 337 342 356 8 10 8 3 359 353
342 342 342 342 343 344 345 345 344 344 344 344 344 342 339 336 334 333 333 333 333 334 335 336 337 338 339 340 342 342 343 343 341 340 339 340 340 341 342 343 342 342 344 348 353 353 348 342 341 340 339 338 338 338 342 7 40 18 359 351 353 2 12 16 16 15 13 9 4
346 346 346 346 347 347 347 346 346 346 346 345 343 341 338 336 335 335 335 335 335 336 336 336 337 338 339 340 340 341 341 342 341 341 340 341 342 343 344 344 343 343 345 349 354 353 349 345 341 339 340 344 354 17 62 81 59 30 16 14 18 22 23 23 23 21 19 16 12
350 349 349 349 349 349 349 349 349 348 346 345 342 340 338 336 337 338 339 339 338 337 336 336 337 338 339 339 340 340 340 341 342 342 342 343 344 345 346 346 345 344 346 350 354 352 347 341 337 337 344 8 37 57 64 58 45 35 31 33 33 31 29 28 27 24 22 19 16
351 351 351 351 351 351 351 351 350 348 346 343 341 339 338 338 339 341 341 341 341 340 338 338 339 340 340 340 340 340 341 341 342 343 344 345 346 347 348 348 346 346 347 351 354 351 343 334 332 336 359 40 48 49 48 43 39 42 46 44 39 34 32 30 29 28 26 25 22
352 352 353 353 352 352 352 351 349 347 344 341 340 339 339 340 341 342 342 342 343 343 343 343 343 343 342 341 341 342 342 343 343 343 344 346 348 350 350 350 348 347 348 351 354 349 340 333 333 342 31 48 47 46 46 41 44 51 54 48 41 36 33 33 33 34 33 30 27
352 352 352 352 352 351 351 349 347 344 342 340 340 340 341 342 342 342 343 343 344 346 348 348 347 346 344 343 342 343 344 344 344 344 345 347 349 351 352 351 349 349 351 355 355 349 342 338 342 5 59 47 50 51 49 44 48 53 54 52 46 41 38 38 39 38 36 34 32
351 351 351 350 350 350 349 347 345 342 341 340 341 341 342 343 343 343 343 344 346 348 350 351 350 348 346 345 344 344 344 345 345 346 347 349 351 353 353 351 349 350 354 357 355 348 344 344 357 46 65 44 48 50 46 42 44 53 58 58 52 47 45 45 43 41 39 37 36
350 349 349 349 348 348 347 345 343 342 341 342 343 343 344 345 345 345 345 345 346 348 350 350 349 348 347 346 346 345 345 345 346 347 349 352 353 354 353 352 350 351 355 358 355 348 346 351 17 69 56 39 42 44 42 41 55 65 67 62 56 53 53 51 48 46 44 42 40
348 347 347 347 347 346 345 344 342 342 343 344 345 346 346 347 347 346 346 347 347 348 347 347 347 347 347 347 347 346 346 346 348 350 351 353 354 354 353 352 351 353 356 358 354 349 349 358 37 72 49 36 37 38 41 51 68 74 71 63 59 59 59 57 54 52 49 46 43
347 347 347 346 345 344 344 343 344 345 346 348 348 348 348 348 348 348 348 348 348 347 346 345 345 346 347 348 348 348 347 348 350 352 353 353 354 354 353 352 352 354 357 358 353 352 355 6 42 68 48 37 35 36 42 57 71 76 73 65 64 64 64 62 59 56 53 49 45
348 348 347 346 345 344 344 345 347 348 350 350 350 349 349 349 349 350 350 350 349 348 346 345 345 346 348 350 350 350 349 350 351 353 354 353 354 354 353 352 354 357 358 357 354 356 1 12 37 58 50 38 35 36 42 53 68 77 78 74 71 69 67 64 61 58 55 51 48
351 350 348 346 346 346 347 348 350 351 352 351 349 349 348 349 350 350 351 351 350 349 347 346 346 348 349 351 352 352 351 351 352 354 356 356 356 354 353 353 356 359 359 356 356 360 5 15 29 44 48 44 41 39 41 46 56 67 77 80 77 73 69 65 61 58 56 53 50
355 353 350 349 348 348 350 351 352 353 353 351 349 348 348 349 350 350 351 352 351 349 348 347 348 348 349 350 352 352 352 352 353 355 357 358 357 355 354 354 358 1 0 357 358 3 8 15 25 36 45 48 47 44 43 43 47 54 63 72 75 73 68 64 59 55 53 51 50
358 356 353 352 352 352 352 353 353 353 352 350 349 349 349 350 349 349 350 351 351 350 349 350 350 350 350 351 352 353 353 353 354 357 358 359 358 356 355 356 0 4 3 360 3 7 11 15 23 35 46 52 50 45 41 39 42 48 54 62 65 65 63 61 57 53 48 45 44
360 357 355 354 354 354 353 353 353 352 351 350 349 349 350 351 349 349 350 350 351 351 351 352 353 353 353 354 356 356 355 355 356 358 359 359 358 357 356 357 2 6 6 4 7 10 13 17 24 35 47 55 53 44 38 37 42 50 56 60 61 61 60 60 59 54 48 42 38
1 358 356 355 355 354 352 351 351 351 350 351 350 350 350 350 350 350 350 351 351 351 351 352 353 354 354 356 357 358 357 357 357 358 358 358 358 358 358 358 3 7 8 7 8 11 14 18 22 30 42 53 54 48 43 44 51 58 62 63 60 59 59 60 60 57 51 44 38
1 358 356 354 354 352 351 350 350 350 350 351 351 350 349 350 350 350 350 351 350 350 349 350 351 352 353 355 356 358 358 358 357 357 358 358 359 359 359 360 4 7 8 8 8 11 14 18 20 24 32 44 50 52 50 51 57 62 63 61 56 53 52 53 54 55 53 48 41
1 359 356 353 352 351 350 350 350 350 350 350 350 349 350 350 349 349 350 350 349 348 348 348 349 349 350 351 353 356 358 359 359 358 358 359 1 2 1 1 4 7 9 9 10 11 13 17 18 19 22 32 43 49 51 51 53 55 56 53 49 46 44 43 44 46 48 48 44
1 358 356 352 350 350 350 350 350 350 349 349 348 349 349 349 348 348 348 349 349 348 348 347 347 346 346 346 348 353 357 360 1 0 360 1 3 4 3 2 4 7 11 13 12 12 14 17 18 17 17 21 31 41 46 47 46 45 43 42 40 39 39 39 38 39 41 42 42
0 357 354 351 350 349 349 350 350 350 349 348 348 348 348 348 347 347 348 348 349 349 348 346 346 345 345 343 344 350 357 1 4 3 3 3 5 6 5 5 7 11 15 17 15 14 15 17 19 18 17 17 22 30 36 39 40 39 36 33 31 32 33 34 35 35 35 36 37
1 358 354 351 349 348 348 349 350 350 349 348 347 347 347 347 348 348 348 348 349 349 347 345 347 349 350 347 347 353 0 5 7 6 5 5 6 7 7 9 13 17 20 20 18 16 16 17 19 19 19 18 19 23 27 31 35 37 35 30 26 25 27 29 30 31 30 30 31
Height
1539 1537 1535 1534 1532 1530 1529 1527 1525 1524 1522 1520 1518 1516 1515 1513 1511 1510 1508 1507 1505 1504 1502 1500 1499 1497 1495 1494 1493 1491 1489 1488 1486 1485 1483 1482 1480 1478 1477 1475 1474 1473 1471 1470 1469 1468 1467 1466 1465 1464 1463 1462 1461 1460 1459 1458 1457 1456 1455 1455 1454 1453 1451 1450 1448 1447 1446 1445 1445
1538 1536 1535 1533 1531 1530 1528 1526 1525 1523 1521 1520 1518 1516 1514 1512 1511 1509 1508 1506 1505 1503 1501 1500 1498 1496 1495 1493 1492 1490 1489 1487 1485 1483 1482 1480 1479 1477 1475 1474 1473 1471 1470 1469 1468 1467 1466 1465 1464 1463 1462 1460 1460 1458 1457 1457 1456 1455 1455 1454 1452 1451 1449 1448 1447 1446 1445 1444 1443
1537 1535 1534 1532 1531 1529 1527 1525 1524 1522 1520 1519 1517 1515 1514 1512 1510 1509 1507 1506 1504 1503 1501 1499 1497 1495 1494 1492 1491 1490 1488 1486 1484 1482 1481 1479 1477 1476 1474 1473 1471 1470 1469 1468 1467 1466 1465 1464 1463 1462 1460 1459 1458 1457 1456 1455 1455 1455 1454 1452 1450 1449 1448 1446 1445 1444 1443 1442 1441
1537 1535 1533 1532 1530 1529 1527 1525 1523 1522 1520 1518 1517 1515 1513 1512 1510 1509 1507 1505 1504 1502 1500 1499 1497 1495 1493 1492 1490 1488 1487 1485 1484 1482 1480 1478 1476 1475 1473 1472 1470 1469 1468 1467 1466 1465 1464 1463 1461 1460 1459 1458 1457 1456 1455 1454 1454 1453 1452 1450 1449 1447 1446 1445 1444 1443 1442 1441 1440
1536 1535 1533 1531 1530 1528 1526 1525 1523 1521 1520 1518 1516 1514 1513 1511 1510 1508 1506 1505 1503 1501 1500 1498 1496 1495 1493 1491 1489 1487 1485 1484 1483 1481 1479 1477 1475 1474 1472 1471 1470 1468 1467 1466 1465 1464 1463 1462 1460 1459 1458 1457 1455 1455 1454 1453 1453 1451 1450 1448 1447 1446 1445 1444 1443 1442 1441 1440 1439
1535 1534 1532 1531 1529 1528 1526 1524 1523 1521 1519 1517 1515 1514 1512 1511 1509 1508 1506 1504 1502 1500 1499 1497 1496 1494 1492 1490 1488 1486 1485 1483 1482 1480 1478 1476 1475 1473 1471 1470 1469 1468 1466 1465 1464 1463 1462 1460 1459 1458 1457 1455 1455 1454 1453 1452 1451 1450 1448 1447 1446 1445 1444 1443 1442 1441 1440 1439 1438
1535 1534 1532 1530 1529 1527 1525 1524 1522 1520 1519 1517 1515 1513 1512 1510 1509 1507 1505 1504 1502 1500 1498 1497 1495 1493 1491 1489 1487 1486 1484 1482 1481 1479 1477 1475 1474 1472 1471 1469 1468 1467 1466 1465 1463 1462 1461 1460 1458 1457 1455 1455 1454 1453 1452 1451 1450 1448 1447 1446 1445 1444 1443 1442 1441 1440 1439 1438 1436
1535 1533 1532 1530 1528 1526 1525 1523 1521 1520 1518 1516 1515 1513 1511 1510 1508 1506 1505 1503 1501 1500 1498 1496 1494 1492 1490 1489 1487 1485 1484 1482 1480 1478 1476 1475 1473 1471 1470 1469 1468 1466 1465 1464 1462 1461 1460 1458 1457 1456 1454 1453 1453 1451 1450 1450 1448 1447 1446 1445 1443 1442 1442 1441 1440 1439 1438 1436 1435
1534 1533 1531 1529 1528 1526 1524 1523 1521 1519 1517 1516 1514 1512 1511 1509 1507 1506 1504 1502 1500 1499 1497 1495 1493 1491 1490 1488 1487 1485 1483 1481 1479 1477 1475 1474 1472 1471 1469 1468 1467 1465 1464 1463 1462 1460 1459 1457 1456 1455 1454 1453 1452 1450 1449 1448 1447 1446 1445 1444 1442 1441 1440 1440 1439 1438 1437 1435 1434
1534 1532 1530 1529 1527 1525 1524 1522 1520 1519 1517 1515 1513 1512 1510 1509 1507 1505 1503 1502 1500 1498 1496 1495 1493 1491 1489 1488 1486 1485 1483 1481 1479 1477 1475 1473 1472 1470 1469 1467 1466 1465 1463 1462 1460 1459 1457 1456 1455 1453 1452 1451 1450 1449 1448 1447 1446 1445 1443 1442 1441 1440 1439 1438 1438 1437 1436 1434 1433
1533 1531 1530 1528 1526 1525 1523 1521 1520 1518 1516 1514 1512 1511 1509 1508 1506 1505 1503 1501 1500 1498 1496 1494 1492 1490 1489 1487 1486 1484 1482 1480 1478 1476 1474 1473 1471 1470 1468 1467 1465 1464 1462 1461 1460 1458 1456 1455 1454 1452 1451 1450 1449 1448 1446 1445 1444 1443 1442 1441 1440 1439 1437 1437 1436 1436 1435 1433 1432
1533 1531 1529 1528 1526 1524 1522 1520 1519 1517 1515 1513 1511 1510 1508 1507 1505 1504 1502 1500 1499 1497 1495 1494 1492 1490 1489 1487 1485 1483 1482 1480 1478 1476 1474 1472 1470 1469 1468 1466 1465 1463 1461 1460 1459 1457 1456 1454 1453 1451 1450 1448 1447 1446 1445 1444 1443 1442 1441 1440 1439 1438 1436 1436 1435 1435 1434 1432 1431
1532 1530 1529 1527 1525 1523 1521 1520 1518 1516 1514 1512 1511 1509 1507 1506 1505 1503 1502 1500 1498 1496 1495 1493 1491 1490 1488 1486 1485 1483 1481 1479 1477 1475 1474 1472 1470 1469 1467 1465 1464 1462 1460 1459 1458 1456 1455 1453 1451 1450 1448 1447 1446 1445 1444 1443 1442 1440 1440 1439 1438 1436 1435 1435 1435 1434 1433 1431 1430
1531 1530 1528 1526 1525 1523 1521 1519 1517 1515 1513 1512 1510 1508 1507 1505 1504 1503 1501 1500 1498 1496 1494 1492 1491 1489 1488 1486 1484 1482 1480 1479 1477 1475 1473 1472 1470 1468 1466 1465 1463 1461 1459 1458 1456 1455 1454 1452 1451 1449 1447 1446 1445 1444 1443 1442 1441 1440 1439 1438 1437 1435 1435 1435 1434 1433 1432 1430 1429
1530 1529 1527 1525 1524 1522 1520 1518 1516 1514 1513 1511 1509 1508 1506 1505 1504 1502 1501 1499 1497 1495 1494 1492 1490 1489 1487 1485 1484 1482 1480 1478 1476 1474 1473 1471 1469 1468 1466 1464 1462 1460 1458 1456 1455 1453 1452 1451 1450 1448 1446 1445 1443 1442 1442 1441 1440 1439 1438 1437 1436 1435 1434 1434 1433 1432 1431 1430 1428
1530 1528 1526 1525 1523 1521 1519 1517 1515 1514 1512 1510 1509 1507 1506 1505 1503 1502 1500 1499 1497 1495 1493 1491 1490 1488 1486 1485 1483 1481 1479 1477 1475 1474 1472 1470 1468 1467 1465 1463 1461 1459 1457 1455 1453 1452 1450 1449 1448 1447 1445 1444 1442 1441 1440 1440 1439 1438 1437 1436 1435 1435 1434 1434 1433 1431 1430 1429 1428
1529 1527 1525 1524 1522 1520 1518 1517 1515 1513 1511 1510 1508 1507 1505 1504 1503 1501 1500 1498 1496 1494 1492 1491 1489 1487 1485 1484 1482 1480 1479 1476 1475 1473 1471 1470 1468 1466 1464 1462 1460 1458 1456 1454 1452 1450 1449 1448 1447 1446 1444 1443 1441 1440 1439 1438 1438 1437 1436 1436 1435 1434 1434 1433 1432 1431 1430 1428 1427
1528 1526 1524 1522 1521 1519 1517 1516 1514 1512 1510 1509 1508 1506 1505 1504 1502 1501 1499 1497 1495 1494 1491 1490 1488 1486 1485 1483 1481 1480 1478 1476 1474 1473 1471 1469 1467 1465 1464 1462 1460 1458 1455 1453 1451 1450 1448 1447 1446 1445 1443 1440 1438 1437 1436 1436 1436 1436 1435 1435 1435 1434 1433 1432 1431 1430 1429 1428 1426
1527 1525 1523 1521 1520 1518 1516 1515 1513 1511 1510 1508 1507 1505 1504 1503 1502 1500 1498 1496 1495 1493 1491 1489 1487 1485 1484 1482 1480 1479 1477 1475 1474 1472 1470 1469 1467 1465 1463 1461 1459 1457 1455 1453 1451 1449 1448 1447 1445 1442 1439 1436 1434 1434 1434 1434 1435 1435 1435 1435 1434 1434 1433 1432 1431 1430 1428 1427 1426
1526 1524 1522 1521 1519 1517 1515 1514 1512 1510 1509 1507 1506 1505 1503 1502 1500 1499 1497 1495 1494 1492 1490 1488 1486 1485 1483 1481 1480 1478 1476 1475 1473 1471 1470 1468 1466 1465 1463 1460 1458 1456 1454 1452 1450 1449 1447 1445 1442 1439 1435 1433 1431 1431 1432 1433 1434 1434 1435 1435 1434 1433 1432 1431 1430 1429 1428 1427 1425
1525 1524 1522 1520 1518 1516 1515 1513 1511 1510 1508 1506 1505 1504 1502 1501 1500 1498 1496 1494 1492 1491 1489 1487 1486 1484 1482 1481 1479 1477 1476 1474 1473 1471 1470 1468 1466 1464 1462 1460 1458 1455 1453 1451 1449 1448 1445 1442 1439 1436 1434 1432 1431 1431 1431 1431 1432 1433 1434 1434 1434 1433 1432 1431 1430 1429 1428 1426 1425
1525 1523 1521 1519 1517 1515 1514 1512 1511 1509 1507 1506 1505 1503 1502 1500 1499 1497 1495 1493 1491 1490 1488 1487 1485 1484 1482 1480 1479 1477 1475 1474 1472 1471 1469 1467 1465 1464 1462 1460 1457 1455 1452 1450 1448 1446 1443 1439 1436 1435 1435 1433 1431 1430 1430 1431 1432 1433 1434 1434 1433 1432 1431 1431 1430 1429 1428 1426 1425
1524 1522 1520 1518 1516 1515 1513 1512 1510 1508 1507 1505 1504 1503 1501 1500 1498 1496 1494 1492 1490 1489 1487 1486 1484 1483 1481 1480 1478 1477 1475 1473 1471 1470 1468 1467 1465 1463 1461 1459 1456 1454 1451 1449 1447 1444 1440 1437 1436 1437 1436 1434 1432 1431 1430 1431 1432 1433 1433 1433 1433 1432 1431 1430 1430 1429 1428 1427 1425
1523 1521 1519 1517 1515 1514 1513 1511 1509 1508 1506 1505 1504 1502 1500 1499 1497 1495 1493 1491 1490 1488 1486 1485 1483 1482 1480 1479 1478 1476 1474 1472 1470 1469 1467 1466 1464 1462 1460 1458 1455 1453 1451 1448 1445 1442 1440 1438 1438 1438 1436 1434 1432 1432 1432 1432 1432 1433 1433 1433 1432 1432 1431 1430 1430 1429 1428 1426 1425
1522 1520 1518 1517 1515 1514 1512 1510 1509 1507 1506 1505 1503 1502 1500 1498 1496 1495 1493 1491 1489 1487 1486 1484 1483 1481 1480 1478 1477 1475 1474 1472 1470 1468 1466 1465 1463 1462 1460 1457 1455 1452 1450 1447 1444 1441 1440 1439 1439 1437 1435 1433 1433 1433 1433 1433 1433 1433 1433 1433 1432 1432 1431 1430 1429 1429 1427 1426 1425
1521 1519 1518 1516 1515 1513 1511 1510 1509 1508 1506 1505 1503 1501 1500 1498 1496 1494 1493 1491 1489 1487 1485 1484 1482 1481 1479 1478 1476 1475 1473 1471 1470 1468 1466 1465 1463 1461 1459 1457 1455 1452 1450 1446 1444 1441 1439 1439 1437 1435 1433 1433 1433 1433 1433 1432 1432 1432 1432 1432 1432 1431 1431 1430 1429 1428 1427 1426 1425
1520 1519 1517 1516 1515 1513 1511 1510 1509 1508 1506 1505 1503 1501 1499 1498 1496 1494 1492 1490 1489 1487 1485 1483 1482 1480 1479 1477 1475 1474 1472 1471 1469 1468 1466 1465 1463 1461 1459 1457 1455 1452 1450 1447 1444 1441 1439 1439 1436 1434 1433 1434 1433 1433 1432 1432 1432 1432 1432 1432 1432 1431 1431 1430 1430 1428 1427 1426 1425
1520 1519 1517 1516 1514 1513 1512 1510 1509 1508 1506 1504 1503 1501 1499 1497 1496 1494 1492 1490 1488 1486 1485 1483 1482 1480 1479 1477 1475 1474 1472 1470 1469 1468 1466 1465 1463 1461 1459 1457 1455 1452 1450 1447 1444 1442 1441 1440 1435 1433 1434 1434 1433 1433 1432 1432 1432 1432 1432 1432 1432 1432 1431 1430 1430 1429 1428 1427 1425
1520 1519 1517 1516 1514 1513 1512 1510 1509 1508 1506 1504 1503 1501 1499 1497 1496 1494 1492 1490 1488 1486 1485 1483 1482 1480 1479 1477 1475 1473 1472 1470 1469 1467 1466 1464 1463 1461 1459 1457 1455 1452 1450 1447 1445 1443 1442 1440 1435 1434 1434 1434 1433 1433 1433 1432 1432 1432 1432 1432 1432 1432 1431 1430 1430 1429 1428 1427 1426
1521 1519 1517 1516 1515 1513 1512 1511 1509 1508 1506 1504 1503 1501 1499 1497 1495 1494 1492 1490 1488 1487 1485 1484 1482 1481 1479 1477 1475 1473 1472 1470 1469 1467 1466 1464 1463 1461 1459 1457 1455 1453 1450 1447 1446 1445 1443 1440 1436 1435 1435 1434 1434 1433 1433 1433 1432 1432 1432 1432 1432 1432 1431 1431 1430 1430 1429 1428 1427
1521 1519 1518 1516 1515 1514 1512 1511 1509 1508 1506 1504 1503 1501 1499 1497 1495 1494 1492 1490 1489 1487 1486 1484 1483 1481 1479 1477 1475 1474 1472 1470 1469 1467 1466 1465 1463 1461 1460 1458 1456 1453 1450 1448 1447 1447 1445 1440 1437 1436 1435 1435 1435 1434 1433 1433 1433 1433 1433 1433 1433 1432 1432 1431 1431 1430 1430 1429 1428
1520 1519 1518 1516 1515 1514 1512 1510 1509 1508 1506 1504 1503 1501 1499 1497 1496 1494 1493 1491 1489 1488 1486 1484 1482 1481 1479 1477 1475 1474 1472 1470 1469 1468 1466 1465 1463 1462 1460 1459 1456 1454 1451 1449 1449 1448 1445 1441 1439 1437 1436 1435 1435 1435 1434 1434 1434 1434 1434 1434 1433 1433 1432 1432 1431 1431 1430 1429 1428
1520 1519 1518 1516 1515 1513 1512 1510 1509 1507 1506 1504 1503 1501 1499 1498 1496 1494 1493 1491 1490 1488 1486 1485 1483 1481 1479 1477 1475 1474 1472 1471 1469 1468 1467 1465 1464 1463 1461 1459 1457 1455 1452 1450 1450 1449 1446 1442 1439 1438 1437 1437 1436 1435 1435 1434 1434 1435 1435 1435 1435 1434 1433 1433 1432 1431 1431 1430 1429
1520 1519 1518 1516 1515 1513 1512 1510 1509 1507 1506 1504 1503 1501 1500 1498 1496 1494 1493 1491 1490 1488 1487 1485 1483 1481 1480 1478 1476 1474 1473 1471 1470 1468 1467 1465 1464 1463 1462 1460 1458 1456 1454 1451 1451 1450 1447 1443 1440 1438 1438 1438 1437 1437 1436 1435 1435 1435 1435 1435 1434 1434 1434 1434 1433 1432 1432 1431 1430
1520 1519 1518 1516 1515 1513 1512 1510 1509 1508 1506 1504 1503 1501 1500 1498 1496 1495 1493 1492 1490 1488 1487 1485 1483 1482 1480 1478 1477 1475 1473 1472 1470 1469 1467 1466 1465 1464 1463 1461 1459 1457 1455 1452 1452 1450 1448 1445 1442 1440 1438 1438 1438 1438 1438 1437 1436 1436 1435 1434 1433 1432 1432 1433 1433 1433 1433 1432 1431
1520 1519 1518 1516 1515 1514 1512 1511 1509 1508 1506 1505 1503 1501 1500 1498 1497 1495 1494 1492 1490 1489 1487 1485 1484 1482 1480 1479 1477 1475 1474 1473 1471 1469 1468 1467 1465 1465 1464 1462 1460 1458 1456 1454 1453 1451 1449 1446 1444 1442 1440 1439 1439 1439 1439 1438 1437 1436 1435 1435 1434 1434 1433 1433 1433 1433 1433 1433 1433
1521 1520 1518 1517 1515 1514 1512 1511 1510 1508 1506 1505 1503 1502 1500 1499 1497 1496 1495 1493 1491 1489 1487 1485 1484 1482 1481 1479 1478 1476 1475 1473 1472 1470 1469 1467 1466 1465 1465 1463 1461 1459 1457 1456 1455 1453 1451 1449 1446 1445 1443 1441 1440 1440 1439 1439 1438 1437 1436 1436 1436 1435 1435 1435 1434 1433 1433 1434 1434
1521 1520 1519 1517 1516 1514 1513 1511 1510 1508 1507 1505 1504 1502 1501 1500 1498 1496 1495 1493 1491 1489 1487 1485 1484 1483 1481 1480 1479 1477 1475 1474 1473 1471 1470 1468 1467 1466 1465 1464 1462 1460 1458 1457 1456 1455 1453 1451 1449 1447 1445 1444 1442 1441 1440 1440 1439 1439 1438 1438 1437 1437 1436 1436 1435 1435 1435 1434 1435
1522 1520 1519 1518 1516 1515 1513 1512 1510 1509 1507 1506 1505 1503 1501 1500 1498 1497 1495 1494 1492 1490 1488 1486 1485 1483 1481 1480 1479 1478 1476 1475 1474 1472 1470 1469 1468 1468 1467 1465 1463 1461 1460 1459 1458 1456 1455 1452 1450 1448 1447 1446 1444 1443 1442 1442 1441 1440 1440 1439 1439 1438 1438 1437 1436 1436 1435 1435 1435
1522 1521 1520 1518 1517 1515 1514 1512 1511 1510 1508 1506 1505 1504 1502 1500 1499 1497 1495 1494 1492 1490 1488 1486 1485 1483 1482 1480 1479 1478 1476 1475 1474 1473 1472 1470 1469 1469 1468 1466 1465 1463 1461 1460 1459 1457 1455 1454 1452 1450 1448 1447 1446 1445 1444 1443 1442 1442 1441 1440 1440 1440 1439 1438 1438 1437 1436 1435 1435
1523 1521 1520 1519 1517 1515 1514 1512 1511 1510 1509 1507 1506 1504 1503 1501 1499 1497 1495 1494 1492 1490 1489 1487 1485 1484 1482 1480 1479 1478 1477 1475 1475 1474 1472 1471 1470 1469 1468 1467 1465 1464 1462 1461 1460 1459 1457 1455 1454 1452 1450 1448 1447 1446 1445 1445 1444 1443 1442 1442 1441 1441 1440 1439 1438 1438 1437 1436 1435